AQI (160)

Current Conditions for Foresthill, CA. Sunny, Dry   
Visibility: 10 miles
Foresthill Advisory text: No Warning

  Summary / Temperature 

Current Temperature
86.8°F
30.4°C
(24/hr Ago)
88.1°F
(Apparent temp)
83.8°F
Warm
Heat Index
83.7°F 

86.8°F/ 30.4°C
Noticeable discomfort

 Temp Rate:

 24/hr Difference:

 Avg Running Temp:

 Todays High:

 Todays Low:

 Y-days High:

 Y-days Low:

 Todays HeatIdx:

 Y-days HeatIdx:

 Evapotranspiration:

+1.9°F/hr 

-1.3°F

84.6°F

87.0°F 2:21pm

67.3°F 6:51am

89.8°F 2:02pm

69.7°F 11:43pm

84.0°F 2:21pm

86.3°F 2:01pm

0.131 in

115' Above Ground

 Temperature:

 6'AGL VRS 115'AGL:

 Avg Running Temp:

 Humidity:

 Todays High:

 Todays Low:

 Y-days High:

 Y-days Low:

84.0°F 

-2.8°F

82.9°F

25% 

84.0°F 11:44am

69.0°F 5:09am

89.0°F 3:32pm

72.0°F 11:20pm

Temp & Humidity Graphs

  Wind 

Wind Speed

 6.0 mph

Gusting to

 10.0 mph

Wind from SW

217°  SW

Light breeze

 Avg speed:

 Wind Run:

 Peak Gust:

  3.0 mph 

62.0 miles

  20.0 mph 4:33am

  Almanac  

Moon age: 22 days,8 hours,8 minutes,48%

Waning Crescent
42%
Illuminated
22 days in cycle

 Moonrise:

 Moonset:

 Sunrise:

 Sunset:

 Solar Noon:

12:01am

2:35pm

6:47am

7:11pm

12:58pm

2min 31s less daylight tomorrow 

  Solar Radiation 

(Current Solar)
  749 W/m2 (88%)
(Todays High)
 816 W/m2@1:00pm
Feels like: 99.5°F in the sun

Rain

 Rain Today:

 Rain Rate (/hr):

 Rain last hour:

 Rain Yesterday:

 This Month:

 Season Total:

35 Days Since Last Rain Day

0.00 in

0.000 in

0.00 in

0.00 in

0.00 in

0.07 in

Updated Time

Updated: 9/16/14  2:28pm

(Updated  sec ago)

Humidity & Barometer

 Humidity:

 Wetbulb:

 Dew Point:

 Barometer:

23% 

65.4°F 

44.6°F 

29.840 inHg 

 Baro Trend:  Steady 
Northern Calif
Preparedness
Fire 
Level 

    UV Index  

(Current UV)
6.6  High
(Todays High) @ 1:11pm
8.0   Very High

Weather Underground 5 day Forecast

Tue Wed Thu Fri Sat
Clear Partly Cloudy  b?/b - T-storms  Clear Clear
Clear Partly Cloudy  ? - T-storms  Clear Clear
88 82 72 81 82
72 64 63 72 70

Foresthill Probe 2 Stats  
Foresthill Probe 2: is located on Thomas Street
at 3000 feet. The main Foresthill Weather site
is located on Melody ln at the 2860 foot elevation

Light Air
85.8°F
29.9°C
Temp Rate:
+1.5°F
Calm
Gusting to
6.0 mph
(Humidity)
23%
Wind from ENE
76°  ENE
Updated: 16/09/14 - 14:26:19
 Todays High: 86.8°F 14:22
 Todays Low: 64.5°F 04:06
 Rain Today: 0.00 in
 Season Total: 0.08 in

Foresthill Wx: Monthly,Yearly, Highs and Lows 

Foresthill  
This Weather Data is coming from the main Foresthill
Weather site located on Melody ln at the 2860 foot
elevation
Not Foresthill Probe 2
Weather Data
Month
  High
Month
  Low
Year
High
Year
Low
Temp 93.2F
9/13/14
62.2F
9/10/14
96.4F
7/14/14
32.0F
2/4/14
Humidity 48%
9/3/14
12%
9/9/14
100%
3/1/14
11%
5/16/14
Heat Index 89.1F
9/13/14
61.0F
9/9/14
95.0F
7/14/14
35.5F
2/5/14
Wind Chill 93.2F
9/13/14
59.5F
9/9/14
96.4F
7/14/14
21.6F
2/5/14
Wind Gust 25 mph
9/14/14
0 mph
9/1/14
40 mph
3/12/14
0 mph
1/1/14
Barometer 29.98 in
9/9/14
29.65 in
9/4/14
30.55 in
1/14/14
29.47 in
2/28/14
ET 0.24 in
9/14/14
0.00 in
9/1/14
0.27 in
7/4/14
0.00 in
1/1/14
Dew Point 51.3F
9/15/14
19.9F
9/9/14
64.6F
8/4/14
5.1F
1/4/14
Infrared Satellite Regional Radar Satellite Imagery Sacramento,CA.  (click to enlarge)
NWS Weather Forecast - Outlook: This Afternoon and Tonight
This
Afternoon

Areas Smoke
Areas
Smoke
Hi 87 °F
NWS forecast: Areas of smoke. Sunny, with a high near 87. South southwest wind around 9 mph.
Tonight

Areas Smoke
Areas
Smoke
Lo 65 °F
NWS forecast: Areas of smoke. Partly cloudy, with a low around 65. Light and variable wind becoming east 6 to 11 mph after midnight.
NWS Weather Forecast - Summary
Updated: Tuesday, Sepember 16, 2014 - 2:57am (PDT)
YR.NO 10 Day Weather forecast
Last update: 09/16/2014 @ 00:03
Next update: 09/16/2014 @ 13:00
Provided by: 22
      Temperature Precipitation Pressure Wind  
Today
09/16/2014
14:00 17:00 84°F   29.87 inHg Light breeze from west-southwest 7 mph
  17:00 23:00 82°F   29.82 inHg Light breeze from west-southwest 5 mph
  23:00 05:00 64°F   29.84 inHg Light air from east 3 mph
    (Click to enlarge)
meteogram

    Forecast for next 9 days

      Temperature Precip Pressure Wind  
Wednesday
09/17/2014
05:00 11:00 55°F   29.83 inHg Light breeze from east 4 mph
  11:00 17:00 79°F   29.83 inHg Gentle breeze from south-southwest 8 mph
  17:00 23:00 77°F   29.78 inHg Gentle breeze from southwest 8 mph
  23:00 05:00 63°F   29.83 inHg Light air from south-southwest 2 mph
      Temperature Precip Pressure Wind  
Thursday
09/18/2014
05:00 11:00 57°F 0.13 in 29.84 inHg Light air from southeast 3 mph
  11:00 17:00 61°F 0.11 in 29.91 inHg Light breeze from south 4 mph
  17:00 23:00 64°F 0.03 in 29.88 inHg Calm from north-northwest 0 mph
  23:00 05:00 57°F   29.90 inHg Light air from northeast 3 mph
      Temperature Precip Pressure Wind  
Friday
09/19/2014
05:00 11:00 50°F   29.88 inHg Light air from east-northeast 3 mph
  11:00 17:00 72°F   29.91 inHg Light breeze from west 4 mph
  17:00 23:00 77°F   29.85 inHg Light breeze from west-northwest 5 mph
  23:00 05:00 59°F   29.91 inHg Light breeze from east-northeast 4 mph
      Temperature Precip Pressure Wind  
Saturday
09/20/2014
05:00 11:00 54°F   29.87 inHg Light breeze from east-northeast 6 mph
  11:00 17:00 81°F   29.90 inHg Light breeze from west-southwest 4 mph
  17:00 23:00 81°F   29.88 inHg Light breeze from west-southwest 4 mph
  23:00 05:00 64°F   29.94 inHg Light air from east 2 mph
      Temperature Precip Pressure Wind  
Sunday
09/21/2014
05:00 11:00 55°F   29.92 inHg Light breeze from east-northeast 5 mph
  11:00 17:00 82°F   29.94 inHg Light breeze from west-southwest 4 mph
  17:00 23:00 84°F   29.91 inHg Light breeze from west-southwest 4 mph
  23:00 05:00 63°F   29.94 inHg Light breeze from east-northeast 4 mph
      Temperature Precip Pressure Wind  
Monday
09/22/2014
05:00 11:00 57°F   29.93 inHg Light breeze from east-northeast 4 mph
  11:00 17:00 86°F   29.94 inHg Light breeze from west 4 mph
  17:00 23:00 84°F   29.91 inHg Light breeze from west-southwest 6 mph
  23:00 05:00 70°F   29.98 inHg Light air from east 2 mph
      Temperature Precip Pressure Wind  
Tuesday
09/23/2014
05:00 11:00 63°F   29.96 inHg Light breeze from east-northeast 5 mph
  11:00 17:00 81°F   29.98 inHg Light breeze from west-northwest 5 mph
  17:00 23:00 82°F   29.93 inHg Light breeze from west 6 mph
  23:00 05:00 66°F   29.99 inHg Light air from east 3 mph
      Temperature Precip Pressure Wind  
Wednesday
09/24/2014
05:00 11:00 59°F   29.98 inHg Light breeze from east 4 mph
  11:00 17:00 82°F   30.01 inHg Light breeze from west 4 mph
  17:00 23:00 84°F   29.97 inHg Light breeze from west 6 mph
  23:00 05:00 63°F   30.01 inHg Light breeze from east-northeast 4 mph
      Temperature Precip Pressure Wind  
Thursday
09/25/2014
05:00 11:00 59°F   29.99 inHg Light breeze from east-northeast 5 mph
  11:00 17:00 88°F   29.99 inHg Light breeze from west-northwest 4 mph

Weather History For Tuesday, September 16, 2014


On this Day - In Weather History ...
Data courtesy of weatherforyou.com
powered by Cumulus v1.9.3 (1059)
Ambient Weather VWS v14.00
Top Contact Website Map Copyright © 2007 - 2014 Foresthillweather.com Never base important decisions on this or any weather information obtained from the Internet